| time (UTC) | temp F | wind direction | speed MPH | gust MPH | rain 1hr in | rain 24hr in | rain mn in | humidity % | barometer mb |
| 20260505213603 | 55 | 205 | 15.0 | 22.0 | 0.00 | 0.00 | 0.00 | 100 | |
| 20260505213203 | 55 | 186 | 13.0 | 21.0 | 0.00 | 0.00 | 0.00 | 100 | |
| 20260505212803 | 55 | 179 | 12.0 | 22.0 | 0.00 | 0.00 | 0.00 | 100 | |
| 20260505212401 | 55 | 194 | 16.0 | 24.0 | 0.00 | 0.00 | 0.00 | 100 | |
| 20260505212001 | 56 | 195 | 17.0 | 25.0 | 0.00 | 0.00 | 0.00 | 100 | |
| 20260505211600 | 56 | 197 | 16.0 | 24.0 | 0.00 | 0.00 | 0.00 | 100 | |
| 20260505211203 | 56 | 184 | 14.0 | 21.0 | 0.00 | 0.00 | 0.00 | 100 | |
| 20260505210801 | 56 | 184 | 18.0 | 26.0 | 0.00 | 0.00 | 0.00 | 100 | |
| 20260505210359 | 56 | 186 | 16.0 | 24.0 | 0.00 | 0.00 | 0.00 | 100 | |
| 20260505205959 | 56 | 193 | 16.0 | 22.0 | 0.00 | 0.00 | 0.00 | 100 | |
| 20260505205558 | 56 | 195 | 18.0 | 23.0 | 0.00 | 0.00 | 0.00 | 100 | |
| 20260505205158 | 56 | 193 | 15.0 | 21.0 | 0.00 | 0.00 | 0.00 | 100 | |
| 20260505204758 | 56 | 196 | 15.0 | 24.0 | 0.00 | 0.00 | 0.00 | 100 | |
| 20260505204356 | 56 | 198 | 14.0 | 21.0 | 0.00 | 0.00 | 0.00 | 100 | |
| 20260505203956 | 56 | 200 | 15.0 | 23.0 | 0.00 | 0.00 | 0.00 | 100 | |
| 20260505203556 | 56 | 202 | 14.0 | 19.0 | 0.00 | 0.00 | 0.00 | 100 | |
| 20260505203156 | 57 | 194 | 14.0 | 20.0 | 0.00 | 0.00 | 0.00 | 100 | |
| 20260505202756 | 57 | 190 | 18.0 | 23.0 | 0.00 | 0.00 | 0.00 | 100 | |
| 20260505202354 | 57 | 188 | 13.0 | 19.0 | 0.00 | 0.00 | 0.00 | 100 | |
| 20260505201954 | 57 | 187 | 14.0 | 20.0 | 0.00 | 0.00 | 0.00 | 100 | |
| 20260505201554 | 57 | 185 | 14.0 | 24.0 | 0.00 | 0.00 | 0.00 | 100 | |
| 20260505201154 | 57 | 180 | 15.0 | 21.0 | 0.00 | 0.00 | 0.00 | 100 | |
| 20260505200754 | 57 | 189 | 15.0 | 24.0 | 0.00 | 0.00 | 0.00 | 100 | |
| 20260505200352 | 57 | 196 | 15.0 | 21.0 | 0.00 | 0.00 | 0.00 | 100 | |
| 20260505195952 | 57 | 202 | 14.0 | 21.0 | 0.00 | 0.00 | 0.00 | 100 | |
| 20260505195552 | 58 | 189 | 12.0 | 16.0 | 0.00 | 0.00 | 0.00 | 100 | |
| 20260505195152 | 58 | 202 | 14.0 | 21.0 | 0.00 | 0.00 | 0.00 | 100 | |
| 20260505194752 | 58 | 191 | 13.0 | 19.0 | 0.00 | 0.00 | 0.00 | 100 | |
| 20260505194350 | 58 | 187 | 14.0 | 20.0 | 0.00 | 0.00 | 0.00 | 100 | |
| 20260505193950 | 58 | 185 | 12.0 | 16.0 | 0.00 | 0.00 | 0.00 | 100 | |
| 20260505193550 | 58 | 193 | 17.0 | 26.0 | 0.00 | 0.00 | 0.00 | 100 | |
| 20260505193148 | 58 | 210 | 11.0 | 17.0 | 0.00 | 0.00 | 0.00 | 100 | |
| 20260505192748 | 58 | 190 | 13.0 | 23.0 | 0.00 | 0.00 | 0.00 | 100 | |
| 20260505192337 | 58 | 195 | 12.0 | 18.0 | 0.00 | 0.00 | 0.00 | 100 | |
| 20260505191936 | 58 | 180 | 12.0 | 18.0 | 0.00 | 0.00 | 0.00 | 100 | |
| 20260505191536 | 58 | 199 | 11.0 | 18.0 | 0.00 | 0.00 | 0.00 | 100 | |
| 20260505191136 | 58 | 207 | 12.0 | 20.0 | 0.00 | 0.00 | 0.00 | 100 | |
| 20260505190736 | 58 | 196 | 14.0 | 20.0 | 0.00 | 0.00 | 0.00 | 100 | |
| 20260505190334 | 58 | 202 | 11.0 | 18.0 | 0.00 | 0.00 | 0.00 | 100 | |
| 20260505185934 | 58 | 218 | 11.0 | 16.0 | 0.00 | 0.00 | 0.00 | 100 | |
| 20260505185533 | 58 | 206 | 10.0 | 16.0 | 0.00 | 0.00 | 0.00 | 100 | |
| 20260505185133 | 58 | 187 | 11.0 | 18.0 | 0.00 | 0.00 | 0.00 | 100 | |
| 20260505184733 | 58 | 207 | 10.0 | 17.0 | 0.00 | 0.00 | 0.00 | 100 | |
| 20260505184332 | 58 | 200 | 10.0 | 14.0 | 0.00 | 0.00 | 0.00 | 100 | |
| 20260505183932 | 59 | 197 | 10.0 | 13.0 | 0.00 | 0.00 | 0.00 | 100 | |
| 20260505183531 | 58 | 208 | 9.0 | 14.0 | 0.00 | 0.00 | 0.00 | 100 | |
| 20260505183131 | 59 | 209 | 11.0 | 19.0 | 0.00 | 0.00 | 0.00 | 100 | |
| 20260505182731 | 59 | 197 | 9.0 | 12.0 | 0.00 | 0.00 | 0.00 | 100 | |
| 20260505182329 | 59 | 203 | 11.0 | 19.0 | 0.00 | 0.00 | 0.00 | 100 | |
| 20260505181929 | 59 | 203 | 10.0 | 18.0 | 0.00 | 0.00 | 0.00 | 100 | |
| 20260505181529 | 59 | 192 | 12.0 | 17.0 | 0.00 | 0.00 | 0.00 | 100 | |
| 20260505181129 | 60 | 177 | 13.0 | 21.0 | 0.00 | 0.00 | 0.00 | 100 | |
| 20260505180729 | 60 | 192 | 13.0 | 20.0 | 0.00 | 0.00 | 0.00 | 100 | |
| 20260505180327 | 60 | 186 | 17.0 | 23.0 | 0.00 | 0.00 | 0.00 | 100 | |
| 20260505175927 | 60 | 190 | 16.0 | 22.0 | 0.00 | 0.00 | 0.00 | 100 | |
| 20260505175526 | 60 | 185 | 15.0 | 26.0 | 0.00 | 0.00 | 0.00 | 100 | |
| 20260505175126 | 60 | 167 | 17.0 | 25.0 | 0.00 | 0.00 | 0.00 | 100 | |
| 20260505174726 | 61 | 202 | 16.0 | 23.0 | 0.00 | 0.00 | 0.00 | 100 | |
| 20260505174325 | 61 | 190 | 16.0 | 21.0 | 0.00 | 0.00 | 0.00 | 100 | |
| 20260505173925 | 61 | 192 | 13.0 | 19.0 | 0.00 | 0.00 | 0.00 | 100 | |
| 20260505173525 | 61 | 179 | 14.0 | 22.0 | 0.00 | 0.00 | 0.00 | 100 | |
| 20260505173125 | 61 | 199 | 13.0 | 22.0 | 0.00 | 0.00 | 0.00 | 100 | |
| 20260505172725 | 62 | 197 | 15.0 | 25.0 | 0.00 | 0.00 | 0.00 | 100 | |
| 20260505172323 | 62 | 192 | 13.0 | 24.0 | 0.00 | 0.00 | 0.00 | 100 | |
| 20260505171923 | 62 | 209 | 14.0 | 29.0 | 0.00 | 0.00 | 0.00 | 100 | |
| 20260505171522 | 62 | 200 | 14.0 | 22.0 | 0.00 | 0.00 | 0.00 | 100 | |
| 20260505171122 | 62 | 192 | 14.0 | 19.0 | 0.00 | 0.00 | 0.00 | 100 | |
| 20260505170722 | 62 | 204 | 15.0 | 21.0 | 0.00 | 0.00 | 0.00 | 100 | |
| 20260505170320 | 63 | 216 | 13.0 | 20.0 | 0.00 | 0.00 | 0.00 | 100 | |
| 20260505165920 | 63 | 214 | 10.0 | 16.0 | 0.00 | 0.00 | 0.00 | 100 | |
| 20260505165520 | 63 | 204 | 15.0 | 18.0 | 0.00 | 0.00 | 0.00 | 100 | |
| 20260505165120 | 63 | 234 | 11.0 | 19.0 | 0.00 | 0.00 | 0.00 | 100 | |
| 20260505164713 | 63 | 216 | 13.0 | 20.0 | 0.00 | 0.00 | 0.00 | 100 | |
| 20260505164311 | 64 | 204 | 13.0 | 22.0 | 0.00 | 0.00 | 0.00 | 100 | |
| 20260505163911 | 63 | 207 | 13.0 | 19.0 | 0.00 | 0.00 | 0.00 | 100 | |
| 20260505163511 | 63 | 204 | 13.0 | 23.0 | 0.00 | 0.00 | 0.00 | 100 | |
| 20260505163111 | 63 | 201 | 14.0 | 22.0 | 0.00 | 0.00 | 0.00 | 100 | |
| 20260505162711 | 63 | 204 | 14.0 | 21.0 | 0.00 | 0.00 | 0.00 | 100 | |
| 20260505162309 | 64 | 212 | 11.0 | 16.0 | 0.00 | 0.00 | 0.00 | 100 | |
| 20260505161909 | 64 | 214 | 13.0 | 18.0 | 0.00 | 0.00 | 0.00 | 100 | |
| 20260505161509 | 64 | 219 | 10.0 | 16.0 | 0.00 | 0.00 | 0.00 | 100 | |
| 20260505161109 | 64 | 207 | 11.0 | 21.0 | 0.00 | 0.00 | 0.00 | 100 | |
| 20260505160709 | 63 | 211 | 12.0 | 20.0 | 0.00 | 0.00 | 0.00 | 100 | |
| 20260505160307 | 63 | 208 | 12.0 | 20.0 | 0.00 | 0.00 | 0.00 | 100 | |
| 20260505153106 | 64 | 195 | 20.0 | 26.0 | 0.00 | 0.00 | 0.00 | 100 | |
| 20260505152706 | 64 | 191 | 18.0 | 26.0 | 0.00 | 0.00 | 0.00 | 100 | |
| 20260505152305 | 65 | 186 | 20.0 | 30.0 | 0.00 | 0.00 | 0.00 | 100 | |
| 20260505151902 | 65 | 202 | 18.0 | 31.0 | 0.00 | 0.00 | 0.00 | 100 | |
| 20260505151502 | 65 | 198 | 18.0 | 28.0 | 0.00 | 0.00 | 0.00 | 100 | |
| 20260505151101 | 66 | 211 | 14.0 | 20.0 | 0.00 | 0.00 | 0.00 | 100 | |
| 20260505150701 | 66 | 219 | 10.0 | 15.0 | 0.00 | 0.00 | 0.00 | 100 | |
| 20260505150332 | 65 | 208 | 11.0 | 19.0 | 0.00 | 0.00 | 0.00 | 100 | |
| 20260505150259 | 65 | 208 | 11.0 | 19.0 | 0.00 | 0.00 | 0.00 | 100 | |
| 20260505140645 | 65 | 195 | 17.0 | 28.0 | 0.00 | 0.00 | 0.00 | 100 | |
| 20260505140243 | 66 | 200 | 16.0 | 24.0 | 0.00 | 0.00 | 0.00 | 100 | |
| 20260505130236 | 66 | 193 | 16.0 | 31.0 | 0.00 | 0.00 | 0.00 | 100 | |
| 20260505125036 | 65 | 198 | 18.0 | 34.0 | 0.00 | 0.00 | 0.00 | 100 | |
| 20260505124635 | 64 | 198 | 15.0 | 20.0 | 0.00 | 0.00 | 0.00 | 100 | |
| 20260505124233 | 64 | 210 | 14.0 | 22.0 | 0.00 | 0.00 | 0.00 | 100 | |
| 20260505123833 | 63 | 203 | 16.0 | 28.0 | 0.00 | 0.00 | 0.00 | 100 | |
| 20260505123433 | 63 | 207 | 14.0 | 20.0 | 0.00 | 0.00 | 0.00 | 100 | |
| 20260505123034 | 63 | 204 | 13.0 | 19.0 | 0.00 | 0.00 | 0.00 | 100 | |
| 20260505122633 | 63 | 192 | 14.0 | 21.0 | 0.00 | 0.00 | 0.00 | 100 | |
| 20260505122231 | 63 | 196 | 13.0 | 24.0 | 0.00 | 0.00 | 0.00 | 100 | |
| 20260505121831 | 63 | 192 | 17.0 | 25.0 | 0.00 | 0.00 | 0.00 | 100 | |
| 20260505121431 | 63 | 201 | 13.0 | 19.0 | 0.00 | 0.00 | 0.00 | 100 | |
| 20260505121031 | 64 | 196 | 16.0 | 23.0 | 0.00 | 0.00 | 0.00 | 100 | |
| 20260505120631 | 64 | 206 | 14.0 | 23.0 | 0.00 | 0.00 | 0.00 | 100 | |
| 20260505120229 | 65 | 208 | 14.0 | 22.0 | 0.00 | 0.00 | 0.00 | 100 | |
| 20260505115829 | 64 | 195 | 14.0 | 21.0 | 0.00 | 0.00 | 0.00 | 100 | |
| 20260505115429 | 64 | 213 | 11.0 | 15.0 | 0.00 | 0.00 | 0.00 | 100 | |
| 20260505115029 | 64 | 193 | 14.0 | 24.0 | 0.00 | 0.00 | 0.00 | 100 | |
| 20260505114629 | 64 | 199 | 14.0 | 21.0 | 0.00 | 0.00 | 0.00 | 100 | |
| 20260505114227 | 63 | 207 | 12.0 | 23.0 | 0.00 | 0.00 | 0.00 | 100 | |
| 20260505113827 | 63 | 191 | 13.0 | 20.0 | 0.00 | 0.00 | 0.00 | 100 | |
| 20260505113420 | 63 | 196 | 14.0 | 25.0 | 0.00 | 0.00 | 0.00 | 100 | |
| 20260505113020 | 64 | 199 | 15.0 | 24.0 | 0.00 | 0.00 | 0.00 | 100 | |
| 20260505112620 | 64 | 202 | 14.0 | 24.0 | 0.00 | 0.00 | 0.00 | 100 | |
| 20260505112217 | 65 | 189 | 13.0 | 21.0 | 0.00 | 0.00 | 0.00 | 100 | |
| 20260505111818 | 65 | 191 | 15.0 | 24.0 | 0.00 | 0.00 | 0.00 | 100 | |
| 20260505111418 | 65 | 218 | 12.0 | 21.0 | 0.00 | 0.00 | 0.00 | 100 | |
| 20260505111015 | 66 | 191 | 18.0 | 29.0 | 0.00 | 0.00 | 0.00 | 100 | |
| 20260505110615 | 66 | 193 | 16.0 | 24.0 | 0.00 | 0.00 | 0.00 | 100 | |
| 20260505110213 | 66 | 196 | 15.0 | 25.0 | 0.00 | 0.00 | 0.00 | 100 | |
| 20260505102208 | 66 | 195 | 17.0 | 26.0 | 0.00 | 0.00 | 0.00 | 100 | |
| 20260505101808 | 66 | 198 | 14.0 | 24.0 | 0.00 | 0.00 | 0.00 | 100 | |
| 20260505101408 | 66 | 195 | 14.0 | 21.0 | 0.00 | 0.00 | 0.00 | 100 | |
| 20260505101008 | 66 | 195 | 17.0 | 27.0 | 0.00 | 0.00 | 0.00 | 100 | |
| 20260505100608 | 66 | 202 | 14.0 | 25.0 | 0.00 | 0.00 | 0.00 | 100 | |
| 20260505100206 | 66 | 203 | 15.0 | 26.0 | 0.00 | 0.00 | 0.00 | 100 | |
| 20260505095806 | 66 | 204 | 16.0 | 22.0 | 0.00 | 0.00 | 0.00 | 100 | |
| 20260505095406 | 66 | 196 | 19.0 | 27.0 | 0.00 | 0.00 | 0.00 | 100 | |
| 20260505095006 | 65 | 203 | 12.0 | 18.0 | 0.00 | 0.00 | 0.00 | 100 | |
| 20260505094605 | 65 | 203 | 16.0 | 24.0 | 0.00 | 0.00 | 0.00 | 100 | |
| 20260505094304 | 65 | 184 | 16.0 | 21.0 | 0.00 | 0.00 | 0.00 | 100 | |
| 20260505094203 | 65 | 184 | 16.0 | 21.0 | 0.00 | 0.00 | 0.00 | 100 | |
| 20260505093839 | 64 | 200 | 15.0 | 27.0 | 0.00 | 0.00 | 0.00 | 100 | |
| 20260505093803 | 64 | 200 | 15.0 | 27.0 | 0.00 | 0.00 | 0.00 | 100 | |
| 20260505093403 | 64 | 200 | 19.0 | 29.0 | 0.00 | 0.00 | 0.00 | 100 | |
| 20260505093004 | 64 | 200 | 18.0 | 25.0 | 0.00 | 0.00 | 0.00 | 100 | |
| 20260505092603 | 64 | 207 | 13.0 | 19.0 | 0.00 | 0.00 | 0.00 | 100 | |
| 20260505092201 | 64 | 196 | 14.0 | 23.0 | 0.00 | 0.00 | 0.00 | 100 | |
| 20260505091801 | 64 | 205 | 14.0 | 22.0 | 0.00 | 0.00 | 0.00 | 100 | |
| 20260505091401 | 64 | 198 | 16.0 | 24.0 | 0.00 | 0.00 | 0.00 | 100 | |
| 20260505091001 | 64 | 202 | 16.0 | 27.0 | 0.00 | 0.00 | 0.00 | 100 | |
| 20260505090601 | 64 | 196 | 16.0 | 24.0 | 0.00 | 0.00 | 0.00 | 100 | |
| 20260505090202 | 64 | 213 | 15.0 | 28.0 | 0.00 | 0.00 | 0.00 | 100 | |
| 20260505085750 | 63 | 193 | 15.0 | 21.0 | 0.00 | 0.00 | 0.00 | 100 | |
| 20260505085350 | 63 | 196 | 17.0 | 24.0 | 0.00 | 0.00 | 0.00 | 100 | |
| 20260505084950 | 63 | 207 | 14.0 | 22.0 | 0.00 | 0.00 | 0.00 | 100 | |
| 20260505084550 | 63 | 202 | 14.0 | 25.0 | 0.00 | 0.00 | 0.00 | 100 | |
| 20260505084148 | 63 | 203 | 21.0 | 27.0 | 0.00 | 0.00 | 0.00 | 100 | |
| 20260505083748 | 63 | 204 | 14.0 | 22.0 | 0.00 | 0.00 | 0.00 | 100 | |
| 20260505083348 | 63 | 197 | 16.0 | 23.0 | 0.00 | 0.00 | 0.00 | 100 | |
| 20260505082947 | 63 | 209 | 14.0 | 20.0 | 0.00 | 0.00 | 0.00 | 100 | |
| 20260505082547 | 63 | 199 | 17.0 | 27.0 | 0.00 | 0.00 | 0.00 | 100 | |
| 20260505082145 | 62 | 202 | 15.0 | 25.0 | 0.00 | 0.00 | 0.00 | 100 | |
| 20260505081745 | 62 | 208 | 14.0 | 25.0 | 0.00 | 0.00 | 0.00 | 100 | |
| 20260505081345 | 62 | 205 | 14.0 | 18.0 | 0.00 | 0.00 | 0.00 | 100 | |
| 20260505080946 | 62 | 197 | 11.0 | 18.0 | 0.00 | 0.00 | 0.00 | 100 | |
| 20260505080545 | 61 | 204 | 15.0 | 22.0 | 0.00 | 0.00 | 0.00 | 100 | |
| 20260505080143 | 61 | 201 | 13.0 | 20.0 | 0.00 | 0.00 | 0.00 | 100 | |
| 20260505075743 | 61 | 202 | 11.0 | 16.0 | 0.00 | 0.00 | 0.00 | 100 | |
| 20260505075343 | 61 | 197 | 14.0 | 21.0 | 0.00 | 0.00 | 0.00 | 100 | |
| 20260505074943 | 61 | 202 | 16.0 | 26.0 | 0.00 | 0.00 | 0.00 | 100 | |
| 20260505074543 | 60 | 198 | 14.0 | 22.0 | 0.00 | 0.00 | 0.00 | 100 | |
| 20260505074141 | 60 | 207 | 15.0 | 22.0 | 0.00 | 0.00 | 0.00 | 100 | |
| 20260505073741 | 59 | 199 | 13.0 | 19.0 | 0.00 | 0.00 | 0.00 | 100 | |
| 20260505073341 | 58 | 211 | 10.0 | 21.0 | 0.00 | 0.00 | 0.00 | 100 | |
| 20260505072941 | 58 | 199 | 13.0 | 22.0 | 0.00 | 0.00 | 0.00 | 100 | |
| 20260505072540 | 58 | 205 | 11.0 | 19.0 | 0.00 | 0.00 | 0.00 | 100 | |
| 20260505072138 | 58 | 201 | 12.0 | 16.0 | 0.00 | 0.00 | 0.00 | 100 | |
| 20260505071738 | 57 | 195 | 14.0 | 22.0 | 0.00 | 0.00 | 0.00 | 100 | |
| 20260505071338 | 57 | 193 | 12.0 | 21.0 | 0.00 | 0.00 | 0.00 | 100 | |
| 20260505070938 | 57 | 196 | 13.0 | 25.0 | 0.00 | 0.00 | 0.00 | 100 | |
| 20260505070538 | 57 | 208 | 15.0 | 25.0 | 0.00 | 0.00 | 0.00 | 100 | |
| 20260505070137 | 57 | 206 | 13.0 | 23.0 | 0.00 | 0.00 | 0.00 | 100 | |
| 20260505065734 | 57 | 209 | 11.0 | 19.0 | 0.00 | 0.00 | 0.00 | 100 | |
| 20260505065335 | 57 | 204 | 13.0 | 22.0 | 0.00 | 0.00 | 0.00 | 100 | |
| 20260505064935 | 57 | 209 | 13.0 | 19.0 | 0.00 | 0.00 | 0.00 | 100 | |
| 20260505064535 | 57 | 208 | 13.0 | 18.0 | 0.00 | 0.00 | 0.00 | 100 | |
| 20260505064133 | 56 | 201 | 9.0 | 15.0 | 0.00 | 0.00 | 0.00 | 100 | |
| 20260505063732 | 56 | 198 | 12.0 | 18.0 | 0.00 | 0.00 | 0.00 | 100 | |
| 20260505063332 | 56 | 200 | 12.0 | 17.0 | 0.00 | 0.00 | 0.00 | 100 | |
| 20260505062932 | 56 | 217 | 12.0 | 19.0 | 0.00 | 0.00 | 0.00 | 100 | |
| 20260505062525 | 55 | 207 | 13.0 | 19.0 | 0.00 | 0.00 | 0.00 | 100 | |
| 20260505062122 | 55 | 201 | 11.0 | 17.0 | 0.00 | 0.00 | 0.00 | 100 | |
| 20260505061722 | 55 | 204 | 12.0 | 17.0 | 0.00 | 0.00 | 0.00 | 100 | |
| 20260505061322 | 55 | 212 | 12.0 | 18.0 | 0.00 | 0.00 | 0.00 | 100 | |
| 20260505060922 | 55 | 210 | 12.0 | 19.0 | 0.00 | 0.00 | 0.00 | 100 | |
| 20260505060522 | 55 | 216 | 10.0 | 15.0 | 0.00 | 0.00 | 0.00 | 100 | |
| 20260505060120 | 55 | 210 | 12.0 | 17.0 | 0.00 | 0.00 | 0.00 | 100 | |
| 20260505055720 | 54 | 201 | 11.0 | 17.0 | 0.00 | 0.00 | 0.00 | 100 | |
| 20260505055320 | 54 | 203 | 11.0 | 18.0 | 0.00 | 0.00 | 0.00 | 100 | |
| 20260505054920 | 54 | 205 | 11.0 | 15.0 | 0.00 | 0.00 | 0.00 | 100 | |
| 20260505054520 | 54 | 194 | 11.0 | 19.0 | 0.00 | 0.00 | 0.00 | 100 | |
| 20260505054119 | 54 | 202 | 13.0 | 18.0 | 0.00 | 0.00 | 0.00 | 100 | |
| 20260505053719 | 54 | 192 | 11.0 | 17.0 | 0.00 | 0.00 | 0.00 | 100 | |
| 20260505053319 | 53 | 198 | 13.0 | 16.0 | 0.00 | 0.00 | 0.00 | 100 | |
| 20260505052919 | 53 | 208 | 12.0 | 16.0 | 0.00 | 0.00 | 0.00 | 100 | |
| 20260505052519 | 53 | 198 | 12.0 | 19.0 | 0.00 | 0.00 | 0.00 | 100 | |
| 20260505052117 | 53 | 206 | 11.0 | 19.0 | 0.00 | 0.00 | 0.00 | 100 | |
| 20260505051717 | 53 | 213 | 11.0 | 16.0 | 0.00 | 0.00 | 0.00 | 100 | |
| 20260505051317 | 53 | 210 | 12.0 | 17.0 | 0.00 | 0.00 | 0.00 | 100 | |
| 20260505050917 | 53 | 209 | 12.0 | 17.0 | 0.00 | 0.00 | 0.00 | 100 | |
| 20260505050517 | 53 | 198 | 12.0 | 15.0 | 0.00 | 0.00 | 0.00 | 100 | |
| 20260505050115 | 53 | 207 | 12.0 | 17.0 | 0.00 | 0.00 | 0.00 | 100 | |
| 20260505041710 | 52 | 193 | 12.0 | 16.0 | 0.00 | 0.00 | 0.00 | 100 | |
| 20260505041310 | 52 | 212 | 12.0 | 18.0 | 0.00 | 0.00 | 0.00 | 100 | |
| 20260505040910 | 52 | 197 | 11.0 | 16.0 | 0.00 | 0.00 | 0.00 | 100 | |
| 20260505040510 | 52 | 202 | 11.0 | 14.0 | 0.00 | 0.00 | 0.00 | 100 | |
| 20260505040108 | 53 | 207 | 10.0 | 15.0 | 0.00 | 0.00 | 0.00 | 100 | |
| 20260505035708 | 53 | 188 | 10.0 | 16.0 | 0.00 | 0.00 | 0.00 | 100 | |
| 20260505035308 | 53 | 194 | 12.0 | 15.0 | 0.00 | 0.00 | 0.00 | 100 | |
| 20260505034859 | 53 | 203 | 11.0 | 15.0 | 0.00 | 0.00 | 0.00 | 100 | |
| 20260505034459 | 53 | 203 | 9.0 | 14.0 | 0.00 | 0.00 | 0.00 | 100 | |
| 20260505034057 | 53 | 191 | 11.0 | 17.0 | 0.00 | 0.00 | 0.00 | 100 | |
| 20260505033657 | 53 | 196 | 10.0 | 12.0 | 0.00 | 0.00 | 0.00 | 100 | |
| 20260505033257 | 53 | 190 | 10.0 | 14.0 | 0.00 | 0.00 | 0.00 | 100 | |
| 20260505032857 | 53 | 205 | 10.0 | 14.0 | 0.00 | 0.00 | 0.00 | 100 | |
| 20260505032457 | 53 | 207 | 11.0 | 15.0 | 0.00 | 0.00 | 0.00 | 100 | |
| 20260505032056 | 53 | 194 | 11.0 | 17.0 | 0.00 | 0.00 | 0.00 | 100 | |
| 20260505031655 | 53 | 206 | 12.0 | 17.0 | 0.00 | 0.00 | 0.00 | 100 | |
| 20260505031255 | 53 | 192 | 12.0 | 17.0 | 0.00 | 0.00 | 0.00 | 100 | |
| 20260505030855 | 53 | 186 | 12.0 | 18.0 | 0.00 | 0.00 | 0.00 | 100 | |
| 20260505030455 | 53 | 198 | 11.0 | 19.0 | 0.00 | 0.00 | 0.00 | 100 | |
| 20260505030053 | 53 | 194 | 12.0 | 20.0 | 0.00 | 0.00 | 0.00 | 100 | |
| 20260505025653 | 54 | 202 | 12.0 | 16.0 | 0.00 | 0.00 | 0.00 | 100 | |
| 20260505025253 | 54 | 189 | 14.0 | 17.0 | 0.00 | 0.00 | 0.00 | 100 | |
| 20260505024851 | 53 | 182 | 11.0 | 16.0 | 0.00 | 0.00 | 0.00 | 100 | |
| 20260505024451 | 53 | 189 | 12.0 | 16.0 | 0.00 | 0.00 | 0.00 | 100 | |
| 20260505024049 | 53 | 185 | 11.0 | 16.0 | 0.00 | 0.00 | 0.00 | 100 | |
| 20260505023649 | 53 | 181 | 12.0 | 17.0 | 0.00 | 0.00 | 0.00 | 100 | |
| 20260505023249 | 53 | 173 | 11.0 | 15.0 | 0.00 | 0.00 | 0.00 | 100 | |
| 20260505022849 | 53 | 195 | 12.0 | 19.0 | 0.00 | 0.00 | 0.00 | 100 | |
| 20260505022449 | 53 | 191 | 12.0 | 15.0 | 0.00 | 0.00 | 0.00 | 100 | |
| 20260505022047 | 53 | 194 | 13.0 | 19.0 | 0.00 | 0.00 | 0.00 | 100 | |
| 20260505021647 | 53 | 181 | 13.0 | 19.0 | 0.00 | 0.00 | 0.00 | 100 | |
| 20260505021247 | 53 | 175 | 11.0 | 15.0 | 0.00 | 0.00 | 0.00 | 100 | |
| 20260505020847 | 53 | 192 | 12.0 | 15.0 | 0.00 | 0.00 | 0.00 | 100 | |
| 20260505020447 | 53 | 192 | 12.0 | 19.0 | 0.00 | 0.00 | 0.00 | 100 | |
| 20260505020048 | 53 | 196 | 11.0 | 14.0 | 0.00 | 0.00 | 0.00 | 100 | |
| 20260505015644 | 53 | 201 | 12.0 | 20.0 | 0.00 | 0.00 | 0.00 | 100 | |
| 20260505015244 | 53 | 199 | 12.0 | 18.0 | 0.00 | 0.00 | 0.00 | 100 | |
| 20260505014845 | 53 | 195 | 11.0 | 17.0 | 0.00 | 0.00 | 0.00 | 100 | |
| 20260505014445 | 53 | 189 | 12.0 | 17.0 | 0.00 | 0.00 | 0.00 | 100 | |
| 20260505014043 | 53 | 184 | 11.0 | 15.0 | 0.00 | 0.00 | 0.00 | 100 | |
| 20260505013642 | 53 | 193 | 11.0 | 16.0 | 0.00 | 0.00 | 0.00 | 100 | |
| 20260505013242 | 53 | 187 | 12.0 | 18.0 | 0.00 | 0.00 | 0.00 | 100 | |
| 20260505012842 | 53 | 183 | 13.0 | 16.0 | 0.00 | 0.00 | 0.00 | 100 | |
| 20260505012442 | 53 | 181 | 11.0 | 19.0 | 0.00 | 0.00 | 0.00 | 100 | |
| 20260505012041 | 53 | 166 | 11.0 | 15.0 | 0.00 | 0.00 | 0.00 | 100 | |
| 20260505011641 | 53 | 193 | 13.0 | 23.0 | 0.00 | 0.00 | 0.00 | 100 | |
| 20260505011233 | 53 | 197 | 12.0 | 18.0 | 0.00 | 0.00 | 0.00 | 100 | |
| 20260505010833 | 53 | 186 | 13.0 | 20.0 | 0.00 | 0.00 | 0.00 | 100 | |
| 20260505010433 | 53 | 163 | 12.0 | 17.0 | 0.00 | 0.00 | 0.00 | 100 | |
| 20260505010031 | 53 | 180 | 11.0 | 17.0 | 0.00 | 0.00 | 0.00 | 100 | |
| 20260505005632 | 53 | 184 | 11.0 | 16.0 | 0.00 | 0.00 | 0.00 | 100 | |
| 20260505005231 | 53 | 183 | 11.0 | 18.0 | 0.00 | 0.00 | 0.00 | 100 | |
| 20260505004831 | 53 | 197 | 12.0 | 15.0 | 0.00 | 0.00 | 0.00 | 100 | |
| 20260505004431 | 54 | 193 | 12.0 | 16.0 | 0.00 | 0.00 | 0.00 | 100 | |
| 20260505004029 | 54 | 171 | 11.0 | 14.0 | 0.00 | 0.00 | 0.00 | 100 | |
| 20260505003629 | 54 | 182 | 13.0 | 17.0 | 0.00 | 0.00 | 0.00 | 100 | |
| 20260505003228 | 54 | 189 | 11.0 | 16.0 | 0.00 | 0.00 | 0.00 | 100 | |
| 20260505002829 | 54 | 189 | 13.0 | 21.0 | 0.00 | 0.00 | 0.00 | 100 | |
| 20260505002429 | 54 | 180 | 12.0 | 16.0 | 0.00 | 0.00 | 0.00 | 100 | |
| 20260505002027 | 55 | 204 | 12.0 | 17.0 | 0.00 | 0.00 | 0.00 | 100 | |
| 20260505001627 | 55 | 181 | 12.0 | 18.0 | 0.00 | 0.00 | 0.00 | 100 | |
| 20260505001226 | 55 | 190 | 12.0 | 17.0 | 0.00 | 0.00 | 0.00 | 100 | |
| 20260505000826 | 54 | 186 | 12.0 | 17.0 | 0.00 | 0.00 | 0.00 | 100 | |
| 20260505000428 | 54 | 186 | 12.0 | 20.0 | 0.00 | 0.00 | 0.00 | 100 | |
| 20260505000024 | 54 | 197 | 9.0 | 13.0 | 0.00 | 0.00 | 0.00 | 100 | |
| 20260504235624 | 55 | 194 | 10.0 | 15.0 | 0.00 | 0.00 | 0.00 | 100 | |
| 20260504235224 | 55 | 180 | 12.0 | 16.0 | 0.00 | 0.00 | 0.00 | 100 | |
| 20260504234824 | 55 | 193 | 10.0 | 18.0 | 0.00 | 0.00 | 0.00 | 100 | |
| 20260504234424 | 55 | 209 | 10.0 | 15.0 | 0.00 | 0.00 | 0.00 | 100 | |
| 20260504234022 | 55 | 200 | 11.0 | 15.0 | 0.00 | 0.00 | 0.00 | 100 | |
| 20260504233622 | 55 | 167 | 10.0 | 16.0 | 0.00 | 0.00 | 0.00 | 100 | |
| 20260504233222 | 55 | 203 | 10.0 | 14.0 | 0.00 | 0.00 | 0.00 | 100 | |
| 20260504232821 | 55 | 207 | 12.0 | 21.0 | 0.00 | 0.00 | 0.00 | 100 | |
| 20260504232421 | 55 | 198 | 10.0 | 17.0 | 0.00 | 0.00 | 0.00 | 100 | |
| 20260504232019 | 55 | 198 | 10.0 | 17.0 | 0.00 | 0.00 | 0.00 | 100 | |
| 20260504231620 | 55 | 197 | 10.0 | 14.0 | 0.00 | 0.00 | 0.00 | 100 | |
| 20260504231220 | 55 | 213 | 8.0 | 13.0 | 0.00 | 0.00 | 0.00 | 100 | |
| 20260504230819 | 55 | 200 | 10.0 | 16.0 | 0.00 | 0.00 | 0.00 | 100 | |
| 20260504230419 | 55 | 204 | 9.0 | 16.0 | 0.00 | 0.00 | 0.00 | 100 | |
| 20260504230017 | 55 | 196 | 8.0 | 13.0 | 0.00 | 0.00 | 0.00 | 100 | |
| 20260504225617 | 55 | 204 | 8.0 | 13.0 | 0.00 | 0.00 | 0.00 | 100 | |
| 20260504225217 | 55 | 187 | 9.0 | 12.0 | 0.00 | 0.00 | 0.00 | 100 | |
| 20260504224817 | 55 | 200 | 8.0 | 14.0 | 0.00 | 0.00 | 0.00 | 100 | |
| 20260504224417 | 55 | 183 | 8.0 | 12.0 | 0.00 | 0.00 | 0.00 | 100 | |
| 20260504224006 | 55 | 200 | 10.0 | 13.0 | 0.00 | 0.00 | 0.00 | 100 | |
| 20260504223603 | 55 | 203 | 9.0 | 14.0 | 0.00 | 0.00 | 0.00 | 100 | |
| 20260504223203 | 55 | 180 | 8.0 | 12.0 | 0.00 | 0.00 | 0.00 | 100 | |
| 20260504222803 | 55 | 203 | 10.0 | 13.0 | 0.00 | 0.00 | 0.00 | 100 | |
| 20260504222403 | 55 | 200 | 10.0 | 16.0 | 0.00 | 0.00 | 0.00 | 100 | |
| 20260504222002 | 55 | 204 | 10.0 | 13.0 | 0.00 | 0.00 | 0.00 | 100 | |
| 20260504221601 | 55 | 202 | 9.0 | 12.0 | 0.00 | 0.00 | 0.00 | 100 | |
| 20260504221201 | 55 | 200 | 9.0 | 13.0 | 0.00 | 0.00 | 0.00 | 100 | |
| 20260504220801 | 55 | 192 | 8.0 | 11.0 | 0.00 | 0.00 | 0.00 | 100 | |
| 20260504220401 | 55 | 192 | 8.0 | 12.0 | 0.00 | 0.00 | 0.00 | 100 | |
| 20260504215959 | 55 | 194 | 9.0 | 13.0 | 0.00 | 0.00 | 0.00 | 100 | |
| 20260504215558 | 55 | 204 | 8.0 | 14.0 | 0.00 | 0.00 | 0.00 | 100 | |
| 20260504215159 | 55 | 214 | 9.0 | 14.0 | 0.00 | 0.00 | 0.00 | 100 | |
| 20260504214759 | 55 | 203 | 7.0 | 11.0 | 0.00 | 0.00 | 0.00 | 100 | |
| 20260504214359 | 55 | 198 | 8.0 | 12.0 | 0.00 | 0.00 | 0.00 | 100 | |
| 20260504213957 | 56 | 205 | 8.0 | 13.0 | 0.00 | 0.00 | 0.00 | 100 |